This is the latest recevied weather packets stored in our database for station/object AB1AU. If no packets are shown the sender has not sent any weather packets the latest 10 day(s).
| Time | Temp. | Humidity | Pressure | Rain* | Wind** | Luminosity | Snow |
|---|---|---|---|---|---|---|---|
| 1777444456 | 7.22° C | 58% | 1020.7 hPa | 0 mm | - | 0 W/m² | - |
| 1777444154 | 7.78° C | 60% | 1020.4 hPa | 0 mm | - | 0 W/m² | - |
| 1777443850 | 7.78° C | 60% | 1020.5 hPa | 0 mm | - | 0 W/m² | - |
| 1777443546 | 7.78° C | 59% | 1020.5 hPa | 0 mm | - | 0 W/m² | - |
| 1777443241 | 7.78° C | 60% | 1020.6 hPa | 0 mm | - | 0 W/m² | - |
| 1777442939 | 7.78° C | 61% | 1020.7 hPa | 0 mm | - | 0 W/m² | - |
| 1777442635 | 7.78° C | 61% | 1020.6 hPa | 0 mm | - | 0 W/m² | - |
| 1777442331 | 7.78° C | 59% | 1020.5 hPa | 0 mm | - | 0 W/m² | - |
| 1777442028 | 7.78° C | 59% | 1020.3 hPa | 0 mm | - | 0 W/m² | - |
| 1777441723 | 7.78° C | 59% | 1020.3 hPa | 0 mm | - | 0 W/m² | - |
| 1777441418 | 7.78° C | 59% | 1020.3 hPa | 0 mm | - | 0 W/m² | - |
| 1777441113 | 7.78° C | 59% | 1020.3 hPa | 0 mm | - | 0 W/m² | - |
| 1777440810 | 7.22° C | 58% | 1020.4 hPa | 0 mm | - | 0 W/m² | - |
| 1777440506 | 7.22° C | 58% | 1020.3 hPa | 0 mm | - | 0 W/m² | - |
| 1777440201 | 7.22° C | 59% | 1020.4 hPa | 0 mm | - | 0 W/m² | - |
| 1777439898 | 6.67° C | 62% | 1020.5 hPa | 0 mm | - | 0 W/m² | - |
| 1777439595 | 6.67° C | 62% | 1020.6 hPa | 0 mm | - | 0 W/m² | - |
| 1777439289 | 6.67° C | 62% | 1020.8 hPa | 0 mm | - | 0 W/m² | - |
| 1777438985 | 6.67° C | 61% | 1021 hPa | 0 mm | - | 0 W/m² | - |
| 1777438683 | 6.67° C | 61% | 1020.9 hPa | 0 mm | - | 0 W/m² | - |
| 1777438379 | 6.67° C | 62% | 1021 hPa | 0 mm | - | 0 W/m² | - |
| 1777438074 | 6.67° C | 60% | 1021 hPa | 0 mm | - | 0 W/m² | - |
| 1777437771 | 6.11° C | 63% | 1020.8 hPa | 0 mm | - | 0 W/m² | - |
| 1777437467 | 6.11° C | 59% | 1021 hPa | 0 mm | - | 0 W/m² | - |
| 1777437164 | 6.11° C | 57% | 1021.1 hPa | 0 mm | - | 0 W/m² | - |
* Rain latest hour (hover to see other rain measurements)
** Current wind speed in m/s (hover to see current wind gust speed)